Regional Weather Roundup
Issued by NWS

Home | Current Version | Previous Version | Graphics & Text | Print | Product List | Glossary On
Versions: 1 2 3 4 5 6 7 8 9 10 11 12 13 14 15 16 17 18 19 20 21 22 23 24 25 26 27 28 29 30 31 32 33 34 35 36 37 38 39 40 41 42 43 44 45 46 47 48 49 50
000
ASUS43 KTOP 280559
RWRKS

WEATHER ROUNDUP FOR KANSAS
NATIONAL WEATHER SERVICE GOODLAND KS
100 AM CDT FRI APR 28 2017

NOTE:  "FAIR" INDICATES FEW OR NO CLOUDS BELOW 12,000 FEET WITH NO
SIGNIFICANT WEATHER AND/OR OBSTRUCTIONS TO VISIBILITY.

KSZ001>006-013>018-027>032-041>047-280700-
NORTHWEST KANSAS

CITY           SKY/WX    TMP DP  RH WIND       PRES   REMARKS
GOODLAND       CLOUDY    42  39  89 W12       29.61R
6HR MIN TEMP:  41; 6HR MAX TEMP:  52; 6HR PCP:  0.39;

HILL CITY      LGT RAIN  46  45  96 E17G26    29.57F FOG
6HR MIN TEMP:  46; 6HR MAX TEMP:  52; 6HR PCP:  0.28;

RUSSELL        CLOUDY    48  44  86 E20G28    29.59F
6HR MIN TEMP:  48; 6HR MAX TEMP:  50; 6HR PCP:  0.15;

$$

KSZ061>065-074>080-084>089-280700-
SOUTHWEST KANSAS

CITY           SKY/WX    TMP DP  RH WIND       PRES   REMARKS
DODGE CITY     CLOUDY    51  46  83 E8        29.57F
6HR MIN TEMP:  50; 6HR MAX TEMP:  58;

ELKHART          N/A     43  36  77 NW8         N/A
GREAT BEND     CLOUDY    50  46  87 E16       29.59S
$$

KSZ066>073-081>083-090>101-280700-
SOUTHEAST KANSAS

CITY           SKY/WX    TMP DP  RH WIND       PRES   REMARKS
CHANUTE        CLOUDY    55  46  71 E10       29.66F
6HR MIN TEMP:  54; 6HR MAX TEMP:  61; 6HR PCP:  0.01;

COFFEYVILLE    CLOUDY    56  52  86 SE7       29.66R
6HR MIN TEMP:  54; 6HR MAX TEMP:  60; 6HR PCP:  0.03;

HUTCHINSON     CLOUDY    51  47  86 E10       29.62S
6HR MIN TEMP:  51; 6HR MAX TEMP:  54; 6HR PCP:  0.03;

PARSONS        PTCLDY    57  49  74 VRB6      29.67F
6HR MIN TEMP:  55; 6HR MAX TEMP:  60; 6HR PCP: TRACE;

WICHITA INTL   LGT RAIN  55  46  71 E12       29.62R
6HR MIN TEMP:  54; 6HR MAX TEMP:  57; 6HR PCP: TRACE;

WICHITA JABRA  PTCLDY    53  47  79 E10       29.63R
6HR MIN TEMP:  53; 6HR MAX TEMP:  55;

$$

KSZ007>012-019>026-033>040-048>060-102>105-280700-
NORTHEAST KANSAS

CITY           SKY/WX    TMP DP  RH WIND       PRES   REMARKS
EMPORIA        LGT RAIN  50  49  96 E12       29.68F
6HR MIN TEMP:  50; 6HR MAX TEMP:  54; 6HR PCP:  0.04;

LAWRENCE       LGT RAIN  51  48  89 E9        29.75R
6HR MIN TEMP:  51; 6HR MAX TEMP:  58; 6HR PCP:  0.07;

MANHATTAN      LGT RAIN  50  47  89 NE10      29.72R
6HR MIN TEMP:  50; 6HR MAX TEMP:  55; 6HR PCP:  0.14;

OLATHE IND     LGT RAIN  51  48  89 NE8       29.75S
6HR MIN TEMP:  51; 6HR MAX TEMP:  59; 6HR PCP:  0.08;

OLATHE EXE     LGT RAIN  50  49  96 NE7       29.75S
6HR MIN TEMP:  50; 6HR MAX TEMP:  58; 6HR PCP:  0.06;

SALINA         LGT RAIN  51  47  86 E14       29.66S
6HR MIN TEMP:  51; 6HR MAX TEMP:  55; 6HR PCP:  0.05;

TOPEKA BILLARD CLOUDY    52  48  86 E8        29.74R
6HR MIN TEMP:  52; 6HR MAX TEMP:  58; 6HR PCP:  0.01;

TOPEKA FORBES  LGT RAIN  51  48  89 E7        29.73R FOG
6HR MIN TEMP:  51; 6HR MAX TEMP:  57; 6HR PCP:  0.08;

$$




USA.gov is the U.S. government's official web portal to all federal, state and local government web resources and services.